Weather History for Anchorage, AK

Change the Weather History Date:

Thursday, January 10, 2013

  Actual Average Record
Temperature  
Mean Temperature 20 °F 17 °F  
Max Temperature 23 °F 23 °F 49 °F (1985)
Min Temperature 17 °F 11 °F -27 °F (1972)
Degree Days  
Heating Degree Days 45    
Month to date heating degree days 383  
Since 1 July heating degree days 5394  
Cooling Degree Days 0    
Month to date cooling degree days 0  
Year to date cooling degree days 0  
Moisture  
Dew Point 19 °F    
Average Humidity 87    
Maximum Humidity 96    
Minimum Humidity 77    
Precipitation  
Precipitation 0.04 in 0.03 in 0.47 in (1930)
Month to date precipitation 0.04 0.26  
Year to date precipitation 0.04 0.26  
Snow  
Snow 0.60 in 0.40 in 5.20 in (2008)
Month to date snowfall 0.7 3.9  
Since 1 July snowfall 25.6 42.0  
Snow Depth 9.00 in    
Sea Level Pressure  
Sea Level Pressure 30.06 in    
Wind  
Wind Speed 4 mph (NNE)    
Max Wind Speed 9 mph    
Max Gust Speed -    
Visibility 8 miles    
Events Snow    
T = Trace of Precipitation, MM = Missing Value Source: NWS Daily Summary

Daily Weather History Graph

Daily Weather History Graph

Search for Another Location

Airport:

Trip Planner

Search our weather history database for the weather conditions in past years. The results will help you decide how hot, cold, wet, or windy it might be!

Date:

Astronomy

Jan. 10, 2013 Rise Set
Actual Time 10:04 AM AKST 4:12 PM AKST
Civil Twilight 9:06 AM AKST 5:09 PM AKST
Nautical Twilight 8:09 AM AKST 6:07 PM AKST
Astronomical Twilight 7:16 AM AKST 6:59 PM AKST
Moon 8:49 AM AKST (1/10) 3:37 PM AKST (1/10)
Length of Visible Light 8h 03m
Length of Day
6h 07m
Waning Crescent, 1% of the Moon is Illuminated
Jan 10
Waning Crescent
Jan 11
New
Jan 18
First Quarter
Jan 26
Full
Feb 3
Last Quarter

Hourly Weather History & Observations

Time (AKST) Temp. Windchill Dew Point Humidity Pressure Visibility Wind Dir Wind Speed Gust Speed Precip Events Conditions
12:53 AM 19.0 °F 13.9 °F 14.0 °F 81% 29.96 in 10.0 mi North 3.5 mph - 0.01 in Snow Light Snow
1:53 AM 19.9 °F 13.4 °F 15.1 °F 81% 29.97 in 5.0 mi NNE 4.6 mph - 0.01 in Snow Light Snow
2:00 AM 19.4 °F 11.5 °F 15.8 °F 86% 29.96 in 2.0 mi North 5.8 mph - 0.00 in Snow Light Snow
2:10 AM 19.4 °F 14.3 °F 15.8 °F 86% 29.96 in 1.8 mi North 3.5 mph - 0.00 in Snow Light Snow
2:25 AM 19.4 °F 14.3 °F 15.8 °F 86% 29.96 in 2.0 mi North 3.5 mph - 0.00 in Snow Light Snow
2:53 AM 21.0 °F 14.6 °F 17.1 °F 85% 29.97 in 2.0 mi NNE 4.6 mph - 0.01 in Snow Light Snow
3:53 AM 21.0 °F 10.6 °F 17.1 °F 85% 29.98 in 3.0 mi North 9.2 mph - 0.01 in Snow Light Snow
4:32 AM 21.2 °F 14.9 °F 17.6 °F 86% 29.98 in 3.0 mi North 4.6 mph - 0.00 in Snow Light Snow
4:53 AM 21.0 °F 13.4 °F 17.1 °F 85% 29.98 in 9.0 mi NNW 5.8 mph - 0.01 in Snow Light Snow
5:53 AM 21.9 °F 15.7 °F 18.0 °F 85% 29.99 in 10.0 mi NE 4.6 mph - 0.00 in   Overcast
6:28 AM 21.2 °F 14.9 °F 17.6 °F 86% 30.00 in 10.0 mi NNW 4.6 mph - N/A   Overcast
6:53 AM 21.9 °F - 18.0 °F 85% 30.02 in 10.0 mi Calm Calm - N/A   Overcast
7:45 AM 21.2 °F 16.4 °F 17.6 °F 86% 30.04 in 10.0 mi NE 3.5 mph - 0.00 in Snow Light Snow
7:53 AM 21.0 °F 16.2 °F 18.0 °F 88% 30.05 in 7.0 mi NE 3.5 mph - 0.00 in Snow Light Snow
8:48 AM 21.2 °F 14.9 °F 19.4 °F 93% 30.06 in 7.0 mi Variable 4.6 mph - 0.00 in Snow Light Snow
8:53 AM 21.9 °F - 19.0 °F 89% 30.08 in 7.0 mi Calm Calm - 0.00 in Snow Light Snow
9:53 AM 21.9 °F - 19.0 °F 89% 30.09 in 10.0 mi Calm Calm - 0.00 in Snow Light Snow
10:53 AM 21.9 °F 17.2 °F 19.0 °F 89% 30.12 in 10.0 mi NNW 3.5 mph - 0.00 in   Overcast
11:00 AM 21.2 °F 16.4 °F 19.4 °F 93% 30.12 in 8.0 mi NNW 3.5 mph - N/A   Overcast
11:46 AM 21.2 °F 16.4 °F 17.6 °F 86% 30.12 in 10.0 mi North 3.5 mph - 0.00 in   Overcast
11:53 AM 21.9 °F 17.2 °F 18.0 °F 85% 30.13 in 10.0 mi North 3.5 mph - 0.00 in   Overcast
11:56 AM 21.2 °F 16.4 °F 17.6 °F 86% 30.12 in 10.0 mi NNW 3.5 mph - N/A   Overcast
12:19 PM 21.2 °F - 19.4 °F 93% 30.13 in 10.0 mi Calm Calm - N/A   Overcast
12:36 PM 23.0 °F - 19.4 °F 86% 30.14 in 10.0 mi Calm Calm - N/A   Overcast
12:53 PM 23.0 °F - 19.0 °F 85% 30.15 in 10.0 mi Calm Calm - N/A   Overcast
1:21 PM 23.0 °F 18.4 °F 19.4 °F 86% 30.13 in 10.0 mi ENE 3.5 mph - N/A   Overcast
1:53 PM 24.1 °F - 19.9 °F 84% 30.16 in 10.0 mi Calm Calm - N/A   Overcast
2:53 PM 24.1 °F - 19.9 °F 84% 30.16 in 10.0 mi Calm Calm - N/A   Overcast
3:53 PM 25.0 °F - 21.0 °F 85% 30.16 in 10.0 mi Calm Calm - N/A   Overcast
4:53 PM 25.0 °F 19.3 °F 21.0 °F 85% 30.15 in 10.0 mi North 4.6 mph - N/A   Overcast
5:53 PM 25.0 °F 17.1 °F 21.0 °F 85% 30.14 in 10.0 mi NE 6.9 mph - N/A   Overcast
6:53 PM 25.0 °F 17.1 °F 21.0 °F 85% 30.12 in 10.0 mi NE 6.9 mph - N/A   Overcast
7:27 PM 23.0 °F 14.7 °F 17.6 °F 80% 30.10 in 10.0 mi NNE 6.9 mph - N/A   Overcast
7:53 PM 23.0 °F 14.7 °F 19.0 °F 85% 30.09 in 10.0 mi NE 6.9 mph - N/A   Overcast
8:21 PM 23.0 °F 15.8 °F 19.4 °F 86% 30.07 in 10.0 mi NE 5.8 mph - N/A   Overcast
8:53 PM 23.0 °F 15.8 °F 19.9 °F 88% 30.08 in 10.0 mi North 5.8 mph - N/A   Overcast
9:35 PM 23.0 °F 13.9 °F 19.4 °F 86% 30.05 in 10.0 mi North 8.1 mph - N/A   Overcast
9:53 PM 23.0 °F 15.8 °F 19.9 °F 88% 30.05 in 10.0 mi NNE 5.8 mph - N/A   Overcast
10:53 PM 23.0 °F 13.1 °F 21.0 °F 92% 30.00 in 9.0 mi NE 9.2 mph - N/A   Overcast
11:53 PM 23.0 °F 15.8 °F 19.9 °F 88% 30.00 in 5.0 mi North 5.8 mph - N/A   Overcast